STARLINK-11378, 62020

Orbit data source: Space-Track

STARLINK-11378, 62020 is a payload satellite owned by SpaceX/Seattle (US) in LEO that was launched on Mon, 18 Nov 2024 UTC via an FALCON 9 launch vehicle from the Air Force Western Test Range (AFWTR). Payload-class satellites include a variety of spacecraft equipped with specific instruments for various scientific and technological missions. These include communications satellites like Starlink; space stations such as the ISS; scientific satellites like the Hubble; Earth observation satellites from companies like Planet Labs, Umbra, and HawkEye 360; GPS; miniature CubeSats for education and research; and military/defense satellites.

Loading next visibility...
Identifier
62020, 2024-213N
Orbit
LEO
Last TLE update
1 day ago
Origin
Manufacturer
SpaceX/Seattle
Mission
Operational Commercial Communications
Bus & Motor
STARLINK V2M, Unknown motor
Mass
730 kg wet, ~700 kg dry
Launch date (UTC)
2024-11-18 (6 months ago)
Launch vehicle
FALCON 9
Launch site
Air Force Western Test Range (AFWTR)
Object type
Payload
Rocket body
Debris
Shape & HBR
Box + 2 Pan, 29 m
Radar Cross Section
36.964 m², Large (>1 m²)

Expand to show TLE details & history

TLE from 1 day ago
0 STARLINK-11378
1 62020U 24213N   25128.22860968  .00000874  00000-0  12073-4 0  9997
2 62020  53.1579 106.7379 0001037 104.3186 255.7947 15.69713586 26940
Epoch: 2025-05-08T05:29Z
Definitive object data (Epoch: 2025-05-08T05:29:11.876Z)
Latitude
-0.00002°
Longitude
158.13629°
Altitude
360.803 km
Speed
7.694 km/s
True Right ascension
07h 06m 57s
True Declination
0° 00' 00"
Sunlit
Object was in daylight at TLE epoch
Visualization TLE readout
Latitude
-16.50398°
Longitude
139.74991°
Altitude
364.623 km
Speed
7.691 km/s
Apparent Right ascension
05h 31m 53s
Apparent Declination
-27° 52' 07"
Sunlit
Object is in daylight
Visualization observer readout
Local Sidereal Time
17:03:28
Azimuth
331.847° NNW
Elevation
-76.598°
Doppler factor
1
Orbital elements
Apogee altitude
360.676 km
Perigee altitude
359.279 km
Semi-major axis
6,738.115 km
Eccentricity
0.0001037
Inclination
53.1579°
RAAN
106.7379°
Arg. of periapsis
104.3186°
True anomaly
255.78318°
Mean anomaly
255.7947°
Eccentric anomaly
255.78894°
Mean motion
3.92406 °/min
BSTAR
0.000012073
Orbital period
91.74 mins
Loading maneuver chart data...
Loading SW <> Apogee altitude chart data...
Loading historical data...
Loading historical data...
Loading historical data...
Loading historical data...
Loading historical data...
Loading historical data...
Loading historical data...

STARLINK-11378 Visibility forecast

Observer location: undefined°, undefined°

Span
Click to sort rows by Start time (UTC) header in descending order
Start Az.
Max El. time (UTC)
Max El. Az.
Max El.
End time (UTC)
End Az.
5 mins2025-05-10 00:26:13.898Z207.725° SW2025-05-10 00:29:13.898Z116.219° SE33.232°2025-05-10 00:31:13.898Z65.852° ENE
|